Starlink 1687

operational
NORAD ID: 46541 Int'l Des: 2020-070 Owner: SPXS Country: US Constellation: starlink
LEOCIRCULARSTARLINK_TYPE

关于 Starlink 1687

正在加载描述...

实时位置

正在加载3D地球...

即将过境

高度历史

Altitude vs Time

uPlot chart will show altitude changes over time

两行轨道根数

1 46541U 20070K 25258.58341435 .02285707 00000-0 11225+0 0 9995
2 46541 53.0526 222.5559 0001494 90.4218 116.5802 15.14012525 5740
Epoch: Sep 15, 2025 • Age: 8 hours

当前状态

高度 534.7 km
速度 7.59 km/s
星下点 -42.39°S, 152.32°W
发射日期 Oct 6, 2020
运行时间 4.9 years
类型 internet

技术详情

分类 Payload
质量 260.00 kg
干质量 248.00 kg
总质量 260.00 kg
长度 0.20 m
直径 2.80 m
跨度 9.00 m
形状 Box + pan
制造商 SPXS
平台类型 Starlink
阶段状态 In Orbit
所有者/国家 SPXS/US

大型星座

Loading constellations...